Samedi 15 août 2020   -   semaine 33                    on fête: Alfred                    soleil  (-2 mn) lever du soleil 06:45:00 coucher du soleil 20:55:00                    lune Dernier croissant
Sélection

Sélection d'un SYNOP

   Synop:       

  Période à consulter:

Actuelle
Archive     

Relevé

Dernier relevé du SYNOP pour la période choisie

Conditions météo à la station de Vichy/Charmeil (4610N 00324E)    altitude 251m

Date du relevé15/08/2020 à 08:00
Visibilité20km
Vent0 km/h N
Température14.7 C
Température maxi / 12h25.7 C
Température mini / 12h23.6 C
Humidité96.8 %
Point de rosée14.2 C
Pression absolue986.7 hPa
Pression relative1016.2 hPa
Variation pression-0.1 hPa en baisse puis en hausse
Précipitations0 mm les 12 dernières heures

24h

Historique de la période choisie

Certaines stations ne diffusent pas en continu, d'où l'absence possible de données à certaines heures. Le tableau ci-dessous récapitule l'historique des relevés de la station de Vichy/Charmeil.

Date - Heure Base des nuages Visibilité Nébulosité Vent - Secteur Température Humidité Point rosée Pression / Géopotentiel Précipitations Temps
15/08 08:00 20km 0 km/h N 14.7 C 96.8 % 14.2 C 1016.2 hPa 0 mm/12h
15/08 07:00 20km 2 km/h O 12.3 C 96.8 % 11.8 C 1016.5 hPa
15/08 06:00 20km 2 km/h SSE 12.8 C 98.1 % 12.5 C 1016.5 hPa
15/08 05:00 20km 2 km/h O 12.9 C 94.9 % 12.1 C 1016.6 hPa
15/08 04:00 20km 0 km/h N 13.6 C 96.2 % 13.0 C 1016.7 hPa
15/08 03:00 20km 0 km/h N 14.7 C 95.0 % 13.9 C 1016.6 hPa
15/08 02:00 20km 2 km/h ONO 15.0 C 91.9 % 13.7 C 1016.7 hPa 0 mm/6h
15/08 01:00 20km 2 km/h O 15.8 C 90.8 % 14.3 C 1016.8 hPa
15/08 00:00 20km 2 km/h ONO 16.8 C 85.8 % 14.4 C 1016.7 hPa
14/08 23:00 20km 2 km/h N 18.1 C 77.0 % 14.0 C 1016.5 hPa
14/08 22:00 20km 2 km/h NNO 19.6 C 67.0 % 13.3 C 1016.0 hPa
14/08 21:00 20km 2 km/h NNO 23.4 C 51.1 % 12.7 C 1015.0 hPa
14/08 20:00 20km 4 km/h N 25.7 C 46.9 % 13.5 C 1014.2 hPa 0 mm/12h
14/08 19:00 20km 4 km/h ONO 25.4 C 49.0 % 13.9 C 1014.1 hPa
14/08 18:00 19km 6 km/h NO 26.3 C 47.1 % 14.1 C 1014.3 hPa
14/08 17:00 20km 6 km/h O 27.2 C 49.2 % 15.6 C 1014.2 hPa
14/08 16:00 20km 6 km/h O 26.5 C 47.1 % 14.3 C 1014.7 hPa
14/08 15:00 20km 6 km/h NO 26.4 C 50.9 % 15.4 C 1015.3 hPa
14/08 14:00 20km 6 km/h O 25.6 C 50.0 % 14.4 C 1015.9 hPa 0 mm/6h
14/08 13:00 19km 4 km/h NO 25.1 C 52.9 % 14.8 C 1016.0 hPa
14/08 12:00 20km 4 km/h ONO 23.2 C 61.2 % 15.3 C 1016.7 hPa
14/08 11:00 20km 6 km/h O 22.9 C 66.0 % 16.2 C 1016.6 hPa
14/08 10:00 20km 4 km/h O 21.3 C 71.8 % 16.0 C 1016.8 hPa
14/08 09:00 20km 4 km/h S 19.9 C 88.8 % 18.0 C 1016.9 hPa

Source: ogimet